Volver al catálogo

ATLAS 5 CENTAUR DEB

ActivoHEO
NORAD 44642·DEBRIS·🇺🇸 United States

Lanzado Oct 17, 2018 desde Cape Canaveral Space Force Station

Loading…

Próximos Pases (próximas 24 horas)

TLE

ActualizadoSource: Space-Track

Época: Sep 14, 2026, 11:55 UTC

1 44642U 18079C   26257.49675796 -.00000172  00000-0  00000-0 0  9991
2 44642  13.3538  19.6239 4641110 349.7452   3.2693  1.84469704 53291

Sigue ATLAS 5 CENTAUR DEB en tiempo real con AllMySat

Download on the App Store